Location: Ellerstadt
(49.4644°N, 8.2615°E)
Time: 00:26:42
(UTC+00:00)

ISS - Pass Details

Date: 17 May 2021
Orbit: 417 x 422 km, 51.6° (Epoch: 15 June)

Event Time Altitude Azimuth Distance (km) Brightness Sun altitude
Rises 20:02:29 0° 230° (SW) 2,355 0.1 -7.9°
Reaches altitude 10° 20:04:37 10° 224° (SW) 1,495 -0.9 -8.2°
Maximum altitude 20:07:50 44° 151° (SSE) 587 -3.4 -8.6°
Drops below altitude 10° 20:11:04 10° 77° (ENE) 1,505 -1.3 -8.9°
Sets 20:13:14 0° 71° (ENE) 2,373 -0.2 -9.2°
